Location: *
(32.8667°N, 13.1833°E)
Time: 16:29:09
(UTC+00:00)

FREGAT/IRIS - Pass Details

Date: 18 July 2019
Orbit: 349 x 356 km, 97.0° (Epoch: 23 August)

Event Time Altitude Azimuth Distance (km) Brightness Sun altitude
Rises 18:52:20 0° 185° (S) 2,172 6.1 -7.7°
Reaches altitude 10° 18:54:22 10° 196° (SSW) 1,332 5.1 -8.0°
Maximum altitude 18:56:57 31° 262° (W) 654 4.3 -8.5°
Drops below altitude 10° 18:59:32 10° 328° (NNW) 1,342 6.5 -9.0°
Sets 19:01:36 0° 338° (NNW) 2,192 7.4 -9.3°
